Regional Weather Roundup
Issued by NWS

Home | Current Version | Previous Version | Text Only | Print | Product List | Glossary Off
Versions: 1 2 3 4 5 6 7 8 9 10 11 12 13 14 15 16 17 18 19 20 21 22 23 24 25 26 27

000
ASUS45 KBOU 280407
RWRCO

WEATHER ROUNDUP FOR COLORADO
NATIONAL WEATHER SERVICE DENVER/BOULDER CO
1000 PM MDT WED APR 27 2016

NOTE: "FAIR" INDICATES FEW OR NO CLOUDS BELOW 12000 FEET WITH NO
SIGNIFICANT WEATHER AND/OR OBSTRUCTIONS TO VISIBILITY.

COZ001>005-013-030-031-280500-
...NORTHWEST COLORADO...

CITY           SKY/WX    TMP DP  RH WIND       PRES   REMARKS
CRAIG          FAIR      38  33  82 NW3       29.84R
HAYDEN         FAIR      39  30  70 E8        29.84F
MEEKER         FAIR      39  34  82 E3        29.83S
MOUNT WERNER   NOT AVBL
STEAMBOAT SPGS FAIR      38  31  78 SE5       29.85F
WALDEN         FAIR      30  27  86 N8        29.90S WCI  23
$$

COZ006>008-011-280500-
...WEST CENTRAL VALLEYS...

CITY           SKY/WX    TMP DP  RH WIND       PRES   REMARKS
GRAND JUNCTION CLOUDY    52  36  54 SE17      29.76R
MONTROSE       FAIR      48  36  63 E5        29.83S
EAGLE          FAIR      43  32  65 CALM      29.87R
RIFLE          FAIR      46  35  65 SE7       29.80R
DELTA          NOT AVBL
NUCLA          NOT AVBL
$$

COZ017>023-064>068-280500-
...SOUTHWEST COLORADO...

CITY           SKY/WX    TMP DP  RH WIND       PRES   REMARKS
DURANGO        FAIR      44  27  51 E7        29.82S
CORTEZ         MOCLDY    47  31  53 NE7       29.78S
PAGOSA SPRINGS CLOUDY    45  28  52 E3        29.88S
TELLURIDE      CLOUDY    36  32  84 E3        29.90S
WOLF CREEK PAS NOT AVBL
$$

COZ009-010-012-014-032>034-037-058>063-280500-
...CENTRAL COLORADO...

CITY           SKY/WX    TMP DP  RH WIND       PRES   REMARKS
ASPEN          MOCLDY    34  29  82 SW7       29.86R WCI  28
BUENA VISTA    CLOUDY    43  27  54 E12       29.88R
COPPER MTN     NOT AVBL
BERTHOUD PASS  CLOUDY    18   9  68 CALM      29.96F
COTTONWOOD PAS CLOUDY    37  21  52 SE7       29.93R
GUNNISON       FAIR      43  27  52 S3        29.89R
KREMMLING      FAIR      36  30  80 CALM      29.89S
LEADVILLE      MOCLDY    28  21  75 CALM      29.90R
MONARCH PASS   SNOW      25  23  93 SW9       30.07S VSB 1/4 WCI  15
SALIDA         CLOUDY    46  31  56 SE13G18   29.94R
SUNLIGHT       FAIR      30  28  93 CALM      29.96S
WILKERSON PASS LGT SNOW  28  27  93 SW5       29.99R VSB 3/4 WCI  23
$$

COZ069>075-280500-
...SAN LUIS VALLEY/SANGRE DE CRISTO MOUNTAINS...

CITY           SKY/WX    TMP DP  RH WIND       PRES   REMARKS
ALAMOSA        CLOUDY    46  27  47 SW12      29.86R
LA VETA PASS   LGT SNOW  32  30  93 MISG      29.97R
SAGUACHE       CLOUDY    39  32  75 NW8G16    29.89R
$$

COZ035-036-038>040-280500-
...NORTHERN COLORADO FRONT RANGE...

CITY           SKY/WX    TMP DP  RH WIND       PRES   REMARKS
DENVER INTL AP MOCLDY    41  27  57 NE7       29.90R
DMNS CITY PARK   N/A     43  27  52 E12G23    29.90S
AURORA         FAIR      37  29  73 E7        29.91R
FRONT RANGE AP NOT AVBL
ERIE MUNI ARPT MOCLDY    42  30  62 E6        29.90R
BOULDER MUN AP CLOUDY    43  32  65 E6        29.90R
CENTENNIAL     MOCLDY    42  27  55 NE7       29.90R
BROOMFIELD     MOCLDY    43  28  56 NE7       29.91R
FORT COLLINS   FAIR      41  27  56 NE14G20   29.89R
LONGMONT       CLOUDY    46  31  56 SE8       29.91R HAZE
$$

COZ041-046-047-076>085-087-088-280500-
...PIKES PEAK/PALMER DIVIDE AND SOUTHERN FOOTHILLS...

CITY           SKY/WX    TMP DP  RH WIND       PRES   REMARKS
COLO. SPRINGS  MOCLDY    43  29  57 NE6       29.90R
A. F. ACADEMY  CLOUDY    43  32  65 E8        29.89R
SCHRIEVER AFB  NOT AVBL
ELLICOTT       NOT AVBL
FALCON         CLOUDY    39  30  68 NE7       29.91R
FORT CARSON    CLOUDY    46  31  56 NE5       29.88R
LIMON          MOCLDY    40  27  59 N12       29.88R
MONUMENT HILL  LGT SNOW  32  32 100 E7        29.93R WCI  26
TRINIDAD       MOCLDY    52  29  41 SE16      29.81R
$$

COZ042>045-048>051-090-091-280500-
...NORTHEAST COLORADO...

CITY           SKY/WX    TMP DP  RH WIND       PRES   REMARKS
GREELEY ARPT   MOCLDY    39  28  65 NE12      29.91R
AKRON          FAIR      36  26  67 NW8       29.90R
BURLINGTON     FAIR      42  30  62 N9        29.87R
WRAY           NOT AVBL
STERLING       FAIR      34  28  80 N7        29.88R WCI  28
HOLYOKE        NOT AVBL
FORT MORGAN    FAIR      35  26  70 CALM      29.92R
$$

COZ086-089-092>099-280500-
...SOUTHEAST COLORADO...

CITY           SKY/WX    TMP DP  RH WIND       PRES   REMARKS
PUEBLO         LGT RAIN  55  30  38 SE8       29.85R
LA JUNTA       MOCLDY    54  28  36 E10       29.84R
LAMAR          FAIR      47  31  53 E7        29.83R
SPRINGFIELD      N/A     50  33  52 E7        29.84R
$$




USA.gov is the U.S. government's official web portal to all federal, state and local government web resources and services.